Location: NJAA Observatory
(40.6819°N, 74.8979°W)
Time: 01:13:10
(UTC-04:00)

Iridium 84 - Visible Passes

Search period start: 25 June 2017 00:00
Search period end: 05 July 2017 00:00
Orbit: 776 x 779 km, 86.4° (Epoch: 24 June)

Date Brightness Start Highest point End Pass type
(mag) Time Alt. Az. Time Alt. Az. Time Alt. Az.
26 Jun 8.3 04:38:31 10° ESE 04:41:51 17° E 04:45:11 10° NE visible
29 Jun 7.9 04:37:36 10° SE 04:41:46 25° E 04:45:57 10° NNE visible
30 Jun 8.4 04:06:06 10° ESE 04:08:35 14° ENE 04:11:04 10° NE visible
02 Jul 7.2 04:37:03 10° SSE 04:41:44 35° E 04:46:27 10° NNE visible
03 Jul 8.1 04:04:49 10° SE 04:08:29 20° E 04:12:09 10° NE visible
04 Jul 8.6 03:34:34 10° E 03:35:20 10° ENE 03:36:07 10° ENE visible
